Погода в Божедаровке

Украина / Днепропетровская область     48°21′22″N   34°07′03″E
темп.,
°C
ветер,
м/с
пор.,
м/с
влажн.,
%
обл.,
%
осадки,
мм/ч
давл.,
гПа
погр.,
м
8 марта, пн
пн823:00−1зюз714656 0.0 1016451
02:00−1зюз6136636 0.0 1015423
05:00−2зюз6127988 0.0 1014299
08:000зюз6127089 0.0 1013555
11:00+3зюз811639 0.0 10121212
14:00+3з796835 0.0 10111165
17:00+1зсз598099 0.1 1012576
20:00−1з4988100 0.1 1013294
9 марта, вт
вт923:00−2зсз378999 0.0 1014250
02:00−3зсз5108266 0.0 1015532
05:00−4сз611810 0.0 1016619
08:00−3сз79663 0.0 1018888
11:00−1сз685528 0.0 10191264
14:00−1сз675563 0.0 10201380
17:00−2ссз575978 0.0 10201126
20:00−4ссз476940 0.0 1023554
10 марта, ср
ср1023:00−5с466941 0.0 1025627
02:00−5с356821 0.0 1026531
05:00−6ссв35670 0.0 1026506
08:00−5св346027 0.0 1027532
11:00−3всв2344100 0.0 1027881
14:00−1св3337100 0.0 10261063
17:00−2всв344199 0.0 10251031
20:00−3св245092 0.0 1026163
11 марта, чт
чт1123:00−3св355076 0.0 1026242
02:00−4св365169 0.0 1027245
05:00−5св35560 0.0 1027155
08:00−3св34490 0.0 1029430
11:00−1св333929 0.0 10291036
14:00+1ссв223636 0.0 10281477
17:000ссв234615 0.0 1028122
20:00−3в35618 0.0 1029149
12 марта, пт
пт1223:00−4юв58600 0.0 1030433
02:00−4ююв59550 0.0 1029432
05:00−4ююв695141 0.0 1029431
08:00−3ююв7104470 0.0 1029549
11:00−1ю81144100 0.0 1028929
14:00+1ю10124398 0.0 10261184
17:000ю81252100 0.0 10241063
20:00−3ю101573100 0.1 1025656